Waarnemingen

Advertentie
Mijn weer
St-Etienne Boutheon, Frankrijk (7475): temperatuur & dauwpunt: 01.12.2019 08:00:00 - 07.12.2019 08:00:00 (CET)St-Etienne Boutheon, Frankrijk (7475): temperatuur 5cm: 01.12.2019 08:00:00 - 07.12.2019 08:00:00 (CET)St-Etienne Boutheon, Frankrijk (7475): temperatuur -20cm & temperatuur -100cm: 01.12.2019 08:00:00 - 07.12.2019 08:00:00 (CET)St-Etienne Boutheon, Frankrijk (7475): windsnelheid & windstoten: 01.12.2019 08:00:00 - 07.12.2019 08:00:00 (CET)St-Etienne Boutheon, Frankrijk (7475): windrichting: 01.12.2019 08:00:00 - 07.12.2019 08:00:00 (CET)St-Etienne Boutheon, Frankrijk (7475): luchtdruk: 01.12.2019 08:00:00 - 07.12.2019 08:00:00 (CET)St-Etienne Boutheon, Frankrijk (7475): zicht: 01.12.2019 08:00:00 - 07.12.2019 08:00:00 (CET)St-Etienne Boutheon, Frankrijk (7475): Zonneschijnduur: 01.12.2019 08:00:00 - 07.12.2019 08:00:00 (CET)St-Etienne Boutheon, Frankrijk (7475): neerslag: 01.12.2019 08:00:00 - 07.12.2019 08:00:00 (CET)
Datum & Tijd tt [°C] td [°C] tt 5cm [°C] tt -20cm [°C] tt -100cm [°C] ff [km/u] ff [kn] fx [km/u] fx [kn] dd ppp [hPa] vv [km] sd [min] rr [mm]
07.12.2019 08:00:00 6,8 3,4 3,3 5,4 10,0 3 1 14 7 ZO 1022,3 60 0 0,0
07.12.2019 07:00:00 6,2 2,5 0,9 5,4 10,0 13 7 16 9 Z 1021,8 60 0 0,0
07.12.2019 06:00:00 6,1 2,2 2,8 5,4 10,0 8 5 13 7 ZO 1021,2 60 0 0,0
07.12.2019 05:00:00 6,7 3,1 5,4 5,3 10,1 3 2 15 8 ZZO 1021,0 46 0 0,0
07.12.2019 04:00:00 8,2 2,8 4,5 5,2 10,1 10 5 18 10 ZZO 1020,7 60 0 0,0
07.12.2019 03:00:00 7,4 2,1 4,5 5,2 10,1 10 5 21 11 ZZO 1020,9 60 0 0,0
07.12.2019 02:00:00 9,8 2,9 6,7 5,1 10,1 13 7 22 12 ZZO 1020,4 60 0 0,0
07.12.2019 01:00:00 8,2 4,0 6,4 5,0 10,1 10 6 20 11 Z 1020,8 59 0 0,0
07.12.2019 00:00:00 8,4 3,2 5,8 4,9 10,1 11 6 21 11 Z 1020,8 44 0 0,0
06.12.2019 23:00:00 8,0 2,9 6,1 4,9 10,1 11 6 17 9 Z 1021,2 50 0 0,0
06.12.2019 22:00:00 7,5 2,8 5,0 4,9 10,2 15 8 26 14 Z 1021,2 43 0 0,0
06.12.2019 21:00:00 5,8 2,8 1,1 4,9 10,1 15 8 19 10 ZZO 1020,9 36 0 0,0
06.12.2019 20:00:00 3,2 1,9 -0,7 5,0 10,1 6 3 10 5 ZZO 1021,4 19 0 0,0
06.12.2019 19:00:00 2,6 1,6 -1,3 5,0 10,2 5 3 7 4 ZO 1021,6 9 0 0,0
06.12.2019 18:00:00 3,9 2,4 -1,0 4,9 10,2 3 2 5 3 Z 1021,2 10 0 0,0
06.12.2019 17:00:00 6,2 2,6 2,5 4,7 10,2 0 0 5 3 N 1020,8 12 25 0,0
06.12.2019 16:00:00 8,5 3,1 10,7 4,4 10,2 2 1 9 5 O 1020,5 15 60 0,0
06.12.2019 15:00:00 9,9 2,7 13,7 4,0 10,2 2 1 11 6 WZW 1020,7 15 60 0,0
06.12.2019 14:00:00 7,8 2,7 13,6 3,8 10,3 7 4 11 6 NNW 1021,7 15 60 0,0
06.12.2019 13:00:00 6,3 2,0 11,7 3,8 10,3 3 2 11 6 NNO 1022,4 13 60 0,0
06.12.2019 12:00:00 4,9 1,2 7,2 3,9 10,3 4 2 9 5 NNW 1023,7 11 60 0,0
06.12.2019 11:00:00 2,7 0,3 4,6 3,9 10,3 5 3 9 5 NNW 1025,1 11 60 0,0
06.12.2019 10:00:00 0,6 -0,9 -1,0 4,0 10,3 3 1 8 4 Z 1025,6 8 60 0,0
06.12.2019 09:00:00 -2,8 -3,3 -7,4 4,0 10,3 4 2 10 5 N 1025,9 6 24 -
06.12.2019 08:00:00 -4,3 -5,0 -7,7 4,1 10,3 0 0 6 3 N 1026,2 5 0 0,0
06.12.2019 07:00:00 -4,3 -4,8 -7,3 4,2 10,3 2 1 8 4 N 1025,9 7 0 0,0
06.12.2019 06:00:00 -4,2 -4,7 -7,5 4,3 10,4 4 2 6 4 ZO 1025,8 8 0 0,0
06.12.2019 05:00:00 -4,5 -5,2 -7,5 4,3 10,4 5 3 6 4 NO 1026,1 5 0 0,0
06.12.2019 04:00:00 -4,7 -5,2 -7,5 4,4 10,4 8 4 10 5 Z 1026,1 3,8 0 0,0
06.12.2019 03:00:00 -3,5 -3,8 -6,9 4,5 10,4 5 3 9 5 N 1026,1 3,5 0 0,0
06.12.2019 02:00:00 -3,5 -4,0 -6,5 4,6 10,4 3 2 7 4 O 1026,0 1,1 0 0,0
06.12.2019 01:00:00 -2,1 -2,4 -5,9 4,7 10,4 4 2 9 5 ZO 1026,2 0,4 0 0,0
06.12.2019 00:00:00 -1,7 -2,3 -5,6 4,8 10,5 5 3 12 7 W 1026,3 4,3 0 0,0
05.12.2019 23:00:00 -1,6 -1,9 -5,9 4,9 10,5 9 5 10 6 Z 1026,2 10 0 0,0
05.12.2019 22:00:00 -1,3 -1,6 -5,9 5,0 10,5 3 2 6 3 Z 1026,4 0,6 0 0,0
05.12.2019 21:00:00 -1,7 -2,0 -4,8 5,1 10,5 5 3 10 6 Z 1026,5 3,7 0 0,0
05.12.2019 20:00:00 -1,7 -2,0 -4,7 5,2 10,5 7 4 10 5 Z 1026,8 3,4 0 0,0
05.12.2019 19:00:00 0,0 -0,6 -4,0 5,3 10,5 3 1 7 4 ONO 1026,1 2,2 0 0,0
05.12.2019 18:00:00 1,9 1,3 -2,4 5,3 10,5 5 3 10 5 ZO 1025,2 7 0 0,0
05.12.2019 17:00:00 4,1 1,6 0,7 5,1 10,5 3 1 8 5 NW 1024,8 11 23 0,0
05.12.2019 16:00:00 5,9 2,9 7,1 4,9 10,5 4 2 9 5 N 1024,1 10 47 0,0
05.12.2019 15:00:00 7,4 3,3 10,1 4,6 10,6 5 3 9 5 NNO 1023,6 9 45 0,0
05.12.2019 14:00:00 6,7 2,8 9,9 4,4 10,6 3 2 9 5 NW 1023,8 10 41 0,0
05.12.2019 13:00:00 6,7 3,3 11,3 4,3 10,6 5 3 10 5 NW 1024,1 11 60 0,0
05.12.2019 12:00:00 5,8 2,1 8,2 4,3 10,6 4 2 8 4 NW 1024,8 12 60 0,0
05.12.2019 11:00:00 2,9 0,9 5,4 4,3 10,6 5 3 8 4 NNO 1025,6 11 60 0,0
05.12.2019 10:00:00 1,1 0,5 -0,8 4,4 10,6 0 0 5 3 N 1025,3 9 60 0,0
05.12.2019 09:00:00 -3,1 -3,4 -7,5 4,5 10,6 3 1 5 3 W 1026,0 3,6 27 0,0
05.12.2019 08:00:00 -4,0 -4,5 -7,4 4,5 10,6 0 0 7 4 N 1025,5 0,3 0 0,0
05.12.2019 07:00:00 -3,2 -3,5 -7,2 4,6 10,6 2 1 4 2 W 1024,5 5 0 0,0
05.12.2019 06:00:00 -3,8 -4,3 -7,4 4,7 10,6 0 0 4 2 N 1024,1 4,4 0 0,0
05.12.2019 05:00:00 -2,9 -3,2 -6,9 4,8 10,6 2 1 3 2 OZO 1023,9 0,5 0 0,0
05.12.2019 04:00:00 -2,5 -2,8 -6,7 4,9 10,7 2 1 5 3 WZW 1023,9 0,8 0 0,0
05.12.2019 03:00:00 -2,2 -2,5 -5,8 5,0 10,7 3 1 10 5 WNW 1023,8 2,0 0 0,0
05.12.2019 02:00:00 -1,9 -2,3 -4,8 5,0 10,7 4 2 8 5 N 1023,3 0,9 0 0,0
05.12.2019 01:00:00 -1,2 -1,6 -2,7 5,1 10,7 3 1 5 3 ONO 1023,1 6 0 0,0
05.12.2019 00:00:00 -1,1 -1,4 -3,5 5,2 10,7 3 1 6 4 NO 1022,8 6 0 0,0
04.12.2019 23:00:00 -1,9 -2,2 -4,7 5,3 10,7 4 2 5 3 ZZO 1022,6 6 0 0,0
04.12.2019 22:00:00 -1,4 -1,7 -4,8 5,5 10,7 2 1 8 4 NNO 1022,4 3,5 0 0,0
04.12.2019 21:00:00 -1,5 -2,1 -4,5 5,6 10,7 4 2 9 5 ZZO 1022,6 7 0 0,0
04.12.2019 20:00:00 -0,8 -1,4 -4,6 5,7 10,7 6 4 8 4 Z 1022,1 7 0 0,0
04.12.2019 19:00:00 0,2 -0,5 -3,4 5,8 10,8 3 1 7 4 N 1021,4 8 0 0,0
04.12.2019 18:00:00 1,5 -0,3 -2,7 5,8 10,8 2 1 6 4 Z 1021,0 13 0 0,0
04.12.2019 17:00:00 4,5 1,0 2,5 5,7 10,8 5 3 10 5 ZZW 1019,9 27 31 0,0
04.12.2019 16:00:00 5,1 1,9 5,3 5,5 10,8 4 2 14 7 Z 1019,5 29 6 0,0
04.12.2019 15:00:00 5,3 1,9 5,7 5,2 10,8 5 3 13 7 Z 1018,7 30 0 0,0
04.12.2019 14:00:00 5,3 1,4 6,2 5,1 10,8 9 5 21 12 ZZO 1019,0 34 30 0,0
04.12.2019 13:00:00 4,0 1,0 4,4 5,0 10,8 15 8 22 12 ZZO 1019,7 30 8 0,0
04.12.2019 12:00:00 3,9 0,4 6,0 5,0 10,8 15 8 22 12 ZZO 1020,3 19 55 0,0
04.12.2019 11:00:00 2,3 0,0 4,1 5,1 10,8 11 6 18 10 ZZO 1021,1 18 60 0,0
04.12.2019 10:00:00 1,1 -0,5 -1,0 5,2 10,8 6 3 10 6 Z 1021,4 11 60 0,0
04.12.2019 09:00:00 -1,8 -2,4 -6,7 5,3 10,8 8 4 11 6 ZZO 1021,9 11 29 0,0
04.12.2019 08:00:00 -3,7 -4,2 -6,6 5,4 10,9 2 1 5 3 ZZO 1022,2 5 0 0,0
04.12.2019 07:00:00 -3,4 -3,9 -6,6 5,5 10,9 2 1 5 3 Z 1022,3 4,9 0 0,0
04.12.2019 06:00:00 -3,3 -3,7 -6,6 5,7 10,9 3 1 7 4 O 1022,3 4,0 0 0,0
04.12.2019 05:00:00 -2,7 -3,2 -6,3 5,8 10,9 0 0 4 2 N 1022,7 5 0 0,0
04.12.2019 04:00:00 -2,0 -2,6 -5,6 5,9 10,9 0 0 10 5 N 1023,2 4,9 0 0,0
04.12.2019 03:00:00 -1,3 -1,9 -4,8 6,1 10,9 6 3 11 6 Z 1023,6 6 0 0,0
04.12.2019 02:00:00 -1,3 -2,1 -3,6 6,2 10,9 7 4 10 5 ZZO 1023,8 6 0 0,0
04.12.2019 01:00:00 -0,3 -1,4 -1,9 6,3 10,9 6 3 14 7 Z 1024,1 7 0 0,0
04.12.2019 00:00:00 0,7 -0,6 -0,2 6,4 10,9 8 5 14 8 Z 1024,5 8 0 0,0
03.12.2019 23:00:00 -0,2 -0,9 -0,5 6,4 10,9 0 0 8 4 N 1024,9 4,6 0 0,0
03.12.2019 22:00:00 -0,2 -1,0 -0,6 6,5 10,9 2 1 5 3 NNO 1025,2 5 0 0,0
03.12.2019 21:00:00 -0,5 -1,5 -1,2 6,7 10,9 0 0 9 5 N 1025,5 5 0 0,0
03.12.2019 20:00:00 0,7 -0,9 -0,9 6,7 10,9 4 2 9 5 WZW 1025,7 10 0 0,0
03.12.2019 19:00:00 0,8 -1,0 -0,4 6,8 10,9 4 2 5 3 ZO 1025,4 8 0 0,0
03.12.2019 18:00:00 1,4 -1,2 0,7 6,7 10,9 2 1 9 5 NW 1025,5 11 0 0,0
03.12.2019 17:00:00 1,6 -1,5 1,6 6,7 10,9 3 1 9 5 NNO 1025,5 14 0 0,0
03.12.2019 16:00:00 1,8 -1,6 2,6 6,6 11,0 0 0 7 4 N 1025,6 15 0 0,0
03.12.2019 15:00:00 1,8 -2,0 3,4 6,5 11,0 2 1 8 5 WZW 1025,5 17 0 0,0
03.12.2019 14:00:00 1,4 -2,2 2,7 6,3 11,0 3 2 9 5 ZZO 1026,2 16 0 0,0
03.12.2019 13:00:00 0,6 -2,6 2,2 6,2 11,0 3 2 11 6 ONO 1027,0 17 0 0,0
03.12.2019 12:00:00 0,3 -2,1 1,6 6,2 11,0 6 4 15 8 NNW 1027,9 15 0 0,0
03.12.2019 11:00:00 0,1 -2,3 0,9 6,2 11,0 6 4 11 6 NW 1028,2 16 0 0,0
03.12.2019 10:00:00 -0,3 -2,2 0,0 6,2 11,0 5 3 12 6 WNW 1027,8 15 0 0,0
03.12.2019 09:00:00 -0,6 -2,2 -0,5 6,3 11,0 5 3 16 8 NNW 1027,9 14 0 0,0
03.12.2019 08:00:00 -0,7 -2,4 -0,6 6,4 11,0 8 4 16 9 NW 1027,7 16 0 0,0
03.12.2019 07:00:00 -0,5 -2,1 -0,5 6,5 11,0 6 4 11 6 WNW 1027,2 14 0 0,0
03.12.2019 06:00:00 -0,4 -2,1 -0,4 6,5 11,0 6 3 16 9 NNW 1027,0 16 0 0,0
03.12.2019 05:00:00 -0,3 -2,0 -0,3 6,6 11,0 7 4 12 7 NNO 1027,0 16 0 0,0
03.12.2019 04:00:00 -0,2 -2,1 -0,3 6,7 11,0 5 3 15 8 N 1027,3 17 0 0,0
03.12.2019 03:00:00 0,1 -1,8 -0,2 6,9 11,0 8 5 22 12 NNW 1027,3 18 0 0,0
03.12.2019 02:00:00 0,0 -1,8 -0,6 7,0 11,0 8 4 16 9 NNW 1027,0 17 0 0,0
03.12.2019 01:00:00 0,2 -1,7 0,0 7,2 11,0 10 5 28 15 NNW 1026,9 19 0 0,0
03.12.2019 00:00:00 0,7 -1,4 -0,4 7,4 11,0 11 6 24 13 NNW 1026,8 19 0 0,0
02.12.2019 23:00:00 0,6 -1,5 0,1 7,5 11,0 12 7 27 15 NW 1026,4 19 0 0,0
02.12.2019 22:00:00 1,0 -1,1 0,3 7,7 11,0 12 7 31 17 NNW 1026,5 20 0 0,0
02.12.2019 21:00:00 2,1 -0,3 2,0 7,8 11,0 14 8 30 16 NNW 1026,0 20 0 0,0
02.12.2019 20:00:00 2,1 -0,3 2,0 7,9 11,0 12 6 25 13 NNW 1026,0 22 0 0,0
02.12.2019 19:00:00 2,2 -0,7 2,0 8,0 11,0 16 9 43 23 N 1025,7 27 0 0,0
02.12.2019 18:00:00 3,2 0,4 3,1 8,1 11,0 21 11 40 21 NNW 1025,2 28 0 0,0
02.12.2019 17:00:00 3,8 2,0 3,7 8,1 11,0 16 9 35 19 N 1024,1 16 0 0,0
02.12.2019 16:00:00 4,0 2,2 4,0 8,2 11,0 18 10 35 19 NNW 1023,8 19 0 0,0
02.12.2019 15:00:00 4,2 2,9 4,1 8,2 11,0 17 9 36 20 NNW 1023,5 19 0 0,0
02.12.2019 14:00:00 3,9 3,2 4,0 8,2 11,0 16 8 33 18 NNW 1023,6 14 0 0,0
02.12.2019 13:00:00 4,2 3,3 4,3 8,2 11,0 16 9 35 19 NNW 1023,7 19 0 0,0
02.12.2019 12:00:00 4,3 3,4 4,4 8,3 11,0 14 8 37 20 NNW 1023,6 23 0 0,0
02.12.2019 11:00:00 4,3 3,3 4,2 8,4 11,0 16 9 31 17 N 1023,4 20 0 0,0
02.12.2019 10:00:00 4,2 3,6 4,3 8,4 11,0 16 8 32 17 NNW 1022,9 16 0 0,0
02.12.2019 09:00:00 4,3 4,0 4,4 8,5 11,0 13 7 28 15 NNW 1022,3 8 0 0,2
02.12.2019 08:00:00 4,8 4,2 4,4 8,6 11,0 8 5 31 17 N 1021,5 8 0 0,0
02.12.2019 07:00:00 4,7 3,8 4,4 8,6 11,0 14 8 31 17 NNO 1020,8 8 0 0,6
02.12.2019 06:00:00 5,3 5,0 5,3 8,7 11,0 13 7 29 15 N 1019,9 4,6 0 1,1
02.12.2019 05:00:00 5,6 5,3 5,5 8,8 11,1 12 6 24 13 N 1019,4 6 0 0,8
02.12.2019 04:00:00 5,7 5,4 5,6 8,8 11,1 11 6 24 13 N 1019,2 6 0 0,4
02.12.2019 03:00:00 6,0 5,6 5,9 8,9 11,1 14 8 26 14 N 1018,8 3,9 0 2,8
02.12.2019 02:00:00 6,8 6,4 6,7 8,9 11,1 12 6 22 12 N 1018,1 3,2 0 1,0
02.12.2019 01:00:00 7,1 6,8 6,9 8,9 11,1 10 5 16 9 N 1017,8 3,6 0 0,6
02.12.2019 00:00:00 7,0 6,6 6,9 9,0 11,1 4 2 12 7 NNO 1017,8 6 0 0,0
01.12.2019 23:00:00 6,9 6,6 6,8 9,0 11,1 3 2 6 3 NNO 1017,5 5 0 0,0
01.12.2019 22:00:00 6,9 6,5 6,6 9,0 11,1 2 1 5 3 OZO 1016,9 5 0 0,0
01.12.2019 21:00:00 6,8 6,4 6,5 9,0 11,1 3 1 8 4 WNW 1016,5 7 0 0,2
01.12.2019 20:00:00 7,1 6,5 6,8 9,1 11,1 4 2 9 5 NW 1016,3 3,5 0 0,6
01.12.2019 19:00:00 7,3 6,4 6,9 9,1 11,1 5 3 9 5 Z 1015,6 4,7 0 0,2
01.12.2019 18:00:00 7,1 6,2 6,1 9,1 11,1 7 4 11 6 ZZO 1015,1 14 0 0,0
01.12.2019 17:00:00 7,5 6,0 6,6 9,1 11,1 6 3 13 7 Z 1014,6 20 0 0,0
01.12.2019 16:00:00 8,9 5,5 9,2 9,0 11,1 0 0 8 4 N 1014,3 60 0 0,0
01.12.2019 15:00:00 8,9 6,2 9,1 8,8 11,1 3 2 13 7 ONO 1013,8 59 0 0,0
01.12.2019 14:00:00 9,2 5,4 9,8 8,7 11,1 7 4 12 7 N 1013,7 60 0 0,0
01.12.2019 13:00:00 9,1 5,3 10,0 8,5 11,1 3 1 8 5 NW 1013,7 59 2 0,0
01.12.2019 12:00:00 9,3 6,0 8,8 8,4 11,1 4 2 10 5 NW 1013,7 57 37 0,0
01.12.2019 11:00:00 8,7 5,4 7,6 8,3 11,1 5 3 13 7 Z 1014,3 59 35 0,0
01.12.2019 10:00:00 7,1 6,4 6,5 8,3 11,1 6 3 13 7 ZZW 1014,4 36 0 0,0
01.12.2019 09:00:00 6,5 6,4 5,6 8,3 11,1 8 4 10 6 Z 1014,3 4,0 0 0,2
01.12.2019 08:00:00 6,5 6,2 6,1 8,3 11,1 4 2 6 4 NNW 1013,0 1,6 0 1,6

tt = temperatuur
td = dauwpunt
tt 5cm = temperatuur 5cm
tt -20cm = temperatuur -20cm
tt -100cm = temperatuur -100cm
ff = windsnelheid
fx = windstoten
dd = windrichting
ppp = luchtdruk
vv = zicht
sd = Zonneschijnduur
rr = neerslag

Weerstations in de omgeving